| time (UTC) | temp F | wind direction | speed MPH | gust MPH | rain 1hr in | rain 24hr in | rain mn in | humidity % | barometer mb |
| 20260504190608 | 53 | 347 | 3.0 | 10.0 | 0.00 | 0.23 | 0.23 | 94 | 1012.8 |
| 20260504185608 | 53 | 23 | 2.0 | 8.0 | 0.00 | 0.23 | 0.23 | 94 | 1012.8 |
| 20260504184610 | 54 | 57 | 4.0 | 14.0 | 0.00 | 0.23 | 0.23 | 94 | 1012.9 |
| 20260504183924 | 54 | 26 | 5.0 | 14.0 | 0.00 | 0.23 | 0.23 | 94 | 1012.7 |
| 20260504183623 | 54 | 11 | 5.0 | 12.0 | 0.00 | 0.23 | 0.23 | 94 | 1012.8 |
| 20260504181600 | 54 | 327 | 5.0 | 13.0 | 0.00 | 0.23 | 0.23 | 94 | 1012.6 |
| 20260504180601 | 54 | 350 | 8.0 | 16.0 | 0.00 | 0.23 | 0.23 | 94 | 1012.4 |
| 20260504175604 | 54 | 5 | 6.0 | 16.0 | 0.00 | 0.23 | 0.23 | 93 | 1012.5 |
| 20260504175120 | 55 | 317 | 5.0 | 14.0 | 0.00 | 0.23 | 0.23 | 93 | 1012.6 |
| 20260504175012 | 55 | 340 | 4.0 | 11.0 | 0.00 | 0.23 | 0.23 | 93 | 1012.7 |
| 20260504174646 | 55 | 0 | 5.0 | 13.0 | 0.00 | 0.23 | 0.23 | 93 | 1012.6 |
| 20260504171600 | 56 | 51 | 3.0 | 12.0 | 0.00 | 0.23 | 0.23 | 92 | 1012.6 |
| 20260504170602 | 57 | 57 | 2.0 | 6.0 | 0.02 | 0.23 | 0.23 | 92 | 1012.5 |
| 20260504150603 | 64 | 19 | 3.0 | 9.0 | 0.00 | 0.12 | 0.00 | 79 | 1012.1 |
| 20260504140835 | 68 | 327 | 2.0 | 5.0 | 0.00 | 0.18 | 0.00 | 67 | 1012.4 |
| 20260504140607 | 68 | 53 | 2.0 | 4.0 | 0.00 | 0.18 | 0.00 | 67 | 1012.3 |
| 20260504130551 | 67 | 37 | 1.0 | 4.0 | 0.00 | 0.18 | 0.00 | 71 | 1012.9 |
| 20260504100539 | 62 | 255 | 1.0 | 5.0 | 0.00 | 0.18 | 0.00 | 79 | 1013.4 |
| 20260504080540 | 58 | 250 | 0.0 | 3.0 | 0.00 | 0.33 | 0.00 | 89 | 1013.2 |
| 20260504050525 | 53 | 273 | 0.0 | 0.0 | 0.00 | 0.43 | 0.00 | 97 | 1011.8 |
| 20260504045526 | 53 | 273 | 0.0 | 0.0 | 0.00 | 0.43 | 0.00 | 96 | 1011.8 |
| 20260504044527 | 53 | 274 | 0.0 | 0.0 | 0.00 | 0.43 | 0.00 | 96 | 1011.8 |
| 20260504043524 | 53 | 274 | 0.0 | 2.0 | 0.00 | 0.43 | 0.00 | 96 | 1011.9 |
| 20260504042521 | 53 | 274 | 0.0 | 2.0 | 0.00 | 0.43 | 0.00 | 96 | 1011.8 |
| 20260504041521 | 53 | 274 | 0.0 | 2.0 | 0.00 | 0.43 | 0.00 | 96 | 1011.7 |
| 20260504040514 | 54 | 274 | 1.0 | 3.0 | 0.00 | 0.43 | 0.00 | 96 | 1011.7 |
| 20260504035519 | 54 | 274 | 2.0 | 4.0 | 0.00 | 0.43 | 0.00 | 96 | 1011.7 |
| 20260504034523 | 54 | 292 | 2.0 | 6.0 | 0.00 | 0.43 | 0.00 | 97 | 1011.7 |
| 20260504034453 | 55 | 273 | 1.0 | 5.0 | 0.00 | 0.43 | 0.00 | 97 | 1011.8 |
| 20260504032517 | 55 | 277 | 1.0 | 3.0 | 0.00 | 0.43 | 0.00 | 97 | 1011.8 |
| 20260504031516 | 55 | 277 | 2.0 | 4.0 | 0.00 | 0.43 | 0.00 | 97 | 1011.8 |
| 20260504030513 | 55 | 294 | 1.0 | 4.0 | 0.00 | 0.43 | 0.00 | 97 | 1011.6 |
| 20260504025509 | 55 | 298 | 2.0 | 7.0 | 0.00 | 0.43 | 0.00 | 97 | 1011.4 |
| 20260504024507 | 55 | 262 | 2.0 | 4.0 | 0.00 | 0.43 | 0.00 | 97 | 1011.4 |
| 20260504023522 | 56 | 262 | 1.0 | 3.0 | 0.00 | 0.43 | 0.00 | 97 | 1011.3 |
| 20260504022513 | 56 | 262 | 1.0 | 3.0 | 0.00 | 0.43 | 0.00 | 97 | 1011.4 |
| 20260504021511 | 56 | 262 | 2.0 | 3.0 | 0.00 | 0.43 | 0.00 | 97 | 1011.4 |
| 20260504020506 | 56 | 262 | 1.0 | 3.0 | 0.00 | 0.43 | 0.00 | 97 | 1011.4 |
| 20260504015502 | 56 | 262 | 2.0 | 4.0 | 0.00 | 0.43 | 0.00 | 97 | 1011.4 |
| 20260504014505 | 56 | 230 | 1.0 | 3.0 | 0.00 | 0.43 | 0.00 | 97 | 1011.4 |
| 20260504013505 | 56 | 230 | 0.0 | 2.0 | 0.00 | 0.43 | 0.00 | 97 | 1011.2 |
| 20260504012507 | 56 | 230 | 0.0 | 1.0 | 0.00 | 0.43 | 0.00 | 97 | 1011.3 |
| 20260504011504 | 56 | 230 | 0.0 | 1.0 | 0.00 | 0.43 | 0.00 | 97 | 1011.3 |
| 20260504010509 | 56 | 230 | 0.0 | 0.0 | 0.00 | 0.43 | 0.00 | 97 | 1011.3 |
| 20260504005504 | 56 | 230 | 0.0 | 2.0 | 0.00 | 0.43 | 0.00 | 97 | 1011.2 |
| 20260504004502 | 56 | 230 | 1.0 | 2.0 | 0.00 | 0.43 | 0.00 | 97 | 1011.3 |
| 20260504003504 | 57 | 230 | 1.0 | 3.0 | 0.00 | 0.43 | 0.00 | 97 | 1011.1 |
| 20260504002503 | 56 | 134 | 0.0 | 2.0 | 0.00 | 0.44 | 0.00 | 97 | 1011.3 |
| 20260504001939 | 57 | 134 | 0.0 | 2.0 | 0.00 | 0.45 | 0.00 | 97 | 1011.3 |
| 20260504000509 | 56 | 134 | 1.0 | 3.0 | 0.00 | 0.45 | 0.00 | 97 | 1011.2 |
| 20260503235510 | 56 | 134 | 0.0 | 3.0 | 0.00 | 0.45 | 0.00 | 97 | 1011.2 |
| 20260503234513 | 56 | 134 | 0.0 | 1.0 | 0.00 | 0.45 | 0.00 | 96 | 1011.2 |
| 20260503233515 | 57 | 134 | 0.0 | 1.0 | 0.00 | 0.45 | 0.00 | 96 | 1011.2 |
| 20260503233422 | 57 | 134 | 1.0 | 3.0 | 0.00 | 0.45 | 0.00 | 96 | 1011.1 |
| 20260503231515 | 57 | 134 | 1.0 | 3.0 | 0.00 | 0.45 | 0.00 | 96 | 1011.0 |
| 20260503230510 | 57 | 134 | 2.0 | 4.0 | 0.00 | 0.45 | 0.00 | 96 | 1011.1 |
| 20260503225503 | 57 | 134 | 1.0 | 4.0 | 0.00 | 0.45 | 0.00 | 96 | 1011.1 |
| 20260503224503 | 57 | 134 | 2.0 | 4.0 | 0.00 | 0.45 | 0.00 | 95 | 1011.2 |
| 20260503223518 | 57 | 134 | 1.0 | 4.0 | 0.00 | 0.45 | 0.00 | 95 | 1011.0 |
| 20260503222503 | 57 | 134 | 1.0 | 4.0 | 0.00 | 0.45 | 0.00 | 95 | 1011.1 |
| 20260503221703 | 57 | 132 | 2.0 | 5.0 | 0.00 | 0.45 | 0.45 | 95 | 1011.1 |
| 20260503221510 | 57 | 134 | 1.0 | 5.0 | 0.00 | 0.45 | 0.00 | 95 | 1011.1 |
| 20260503220515 | 57 | 132 | 1.0 | 3.0 | 0.00 | 0.45 | 0.00 | 95 | 1011.2 |
| 20260503214506 | 57 | 156 | 2.0 | 5.0 | 0.00 | 0.45 | 0.45 | 94 | 1011.1 |
| 20260503213507 | 57 | 122 | 2.0 | 7.0 | 0.00 | 0.45 | 0.45 | 94 | 1011.1 |
| 20260503212609 | 58 | 161 | 4.0 | 8.0 | 0.00 | 0.45 | 0.45 | 94 | 1011.3 |
| 20260503212510 | 58 | 158 | 3.0 | 7.0 | 0.00 | 0.45 | 0.45 | 94 | 1011.2 |
| 20260503210459 | 58 | 205 | 3.0 | 8.0 | 0.00 | 0.45 | 0.45 | 94 | 1011.3 |
| 20260503205456 | 58 | 147 | 3.0 | 8.0 | 0.00 | 0.45 | 0.45 | 94 | 1011.0 |
| 20260503204457 | 58 | 199 | 3.0 | 7.0 | 0.00 | 0.45 | 0.45 | 94 | 1011.0 |
| 20260503203458 | 58 | 119 | 4.0 | 8.0 | 0.00 | 0.45 | 0.45 | 94 | 1010.9 |
| 20260503203113 | 58 | 131 | 3.0 | 7.0 | 0.00 | 0.45 | 0.45 | 94 | 1011.0 |
| 20260503201450 | 58 | 149 | 3.0 | 7.0 | 0.00 | 0.45 | 0.45 | 94 | 1011.0 |
| 20260503200449 | 58 | 141 | 3.0 | 7.0 | 0.00 | 0.45 | 0.45 | 94 | 1011.0 |
| 20260503195446 | 58 | 150 | 2.0 | 6.0 | 0.00 | 0.45 | 0.45 | 94 | 1011.0 |
| 20260503194447 | 58 | 132 | 3.0 | 6.0 | 0.00 | 0.45 | 0.45 | 93 | 1010.8 |
| 20260503193438 | 58 | 138 | 3.0 | 8.0 | 0.00 | 0.45 | 0.45 | 93 | 1010.8 |
| 20260503192441 | 58 | 136 | 3.0 | 6.0 | 0.00 | 0.45 | 0.45 | 93 | 1010.7 |